Stations météo

réclame
Mon MeteoGroup
Gemini, Pays-Bas (6214): Température de l'air & dewpoint: 10.01.2018 10:00:00 - 16.01.2018 10:00:00 (CET)Gemini, Pays-Bas (6214): Vitesse du vent & gusts: 10.01.2018 10:00:00 - 16.01.2018 10:00:00 (CET)Gemini, Pays-Bas (6214): Direction du vent: 10.01.2018 10:00:00 - 16.01.2018 10:00:00 (CET)Gemini, Pays-Bas (6214): reduced air pressure: 10.01.2018 10:00:00 - 16.01.2018 10:00:00 (CET)Gemini, Pays-Bas (6214): visibility: 10.01.2018 10:00:00 - 16.01.2018 10:00:00 (CET)
Date & Time tt [°C] td [°C] ff [km/h] ff [knt] fx [km/h] fx [knt] dd ppp [hPa] vv [km]
16.01.2018 10:00:00 6,0 2,0 44 24 - - WNW 984,7 -
16.01.2018 09:00:00 5,2 1,3 41 22 58 31 WNW 984,7 -
16.01.2018 08:00:00 4,8 1,5 46 25 50 27 NW 984,3 -
16.01.2018 07:00:00 5,8 1,9 41 22 47 25 WNW 984,0 -
16.01.2018 06:00:00 5,7 1,0 44 24 50 27 W 984,2 -
16.01.2018 05:00:00 6,2 2,8 50 27 50 27 W 984,8 -
16.01.2018 04:00:00 6,2 2,4 52 28 61 33 W 985,3 -
16.01.2018 03:00:00 6,7 2,3 59 32 65 35 W 986,0 -
16.01.2018 02:00:00 6,7 3,3 35 19 58 31 W 985,7 10
16.01.2018 01:00:00 7,0 2,4 54 29 54 29 WNW 985,5 10
16.01.2018 00:00:00 6,9 4,0 41 22 47 25 WNW 984,5 10
15.01.2018 23:00:00 6,5 4,0 44 24 47 25 WNW 984,0 10
15.01.2018 22:00:00 6,4 6,1 39 21 58 31 SW 983,3 10
15.01.2018 21:00:00 5,4 4,2 63 34 68 37 SSW 984,5 10
15.01.2018 20:00:00 5,2 4,1 63 34 72 39 SSW 985,8 10
15.01.2018 19:00:00 5,2 4,3 76 41 79 43 SSW 987,9 10
15.01.2018 18:00:00 5,8 4,9 65 35 68 37 SSW 989,2 12
15.01.2018 17:00:00 5,2 4,4 67 36 72 39 SSW 991,1 -
15.01.2018 16:00:00 5,1 4,1 74 40 79 43 SSW 992,6 7
15.01.2018 15:00:00 5,3 4,0 68 37 79 43 SSW 994,6 9
15.01.2018 14:00:00 4,9 3,9 67 36 72 39 SSW 996,4 7
15.01.2018 13:00:00 4,4 3,4 67 36 68 37 SSW 998,5 8
15.01.2018 12:00:00 4,5 3,0 67 36 72 39 SSW 1001,3 6
15.01.2018 11:00:00 4,4 3,0 61 33 65 35 SSW 1002,5 5
15.01.2018 10:00:00 4,2 2,5 57 31 58 31 SSW 1004,0 7
15.01.2018 09:00:00 4,0 2,1 54 29 54 29 SSW 1005,0 6
15.01.2018 08:00:00 3,8 1,9 52 28 58 31 SSW 1006,3 6
15.01.2018 07:00:00 3,6 1,8 52 28 54 29 SSW 1007,5 5
15.01.2018 06:00:00 3,5 2,0 48 26 54 29 SSW 1008,7 5
15.01.2018 05:00:00 3,3 1,8 54 29 54 29 SSW 1010,3 5
15.01.2018 04:00:00 3,5 1,6 48 26 50 27 SSW 1011,5 9
15.01.2018 03:00:00 2,9 0,5 41 22 47 25 SSW 1012,6 12
15.01.2018 02:00:00 3,0 0,0 46 25 47 25 SSW 1014,1 -
15.01.2018 01:00:00 3,2 -0,1 46 25 47 25 S 1014,9 -
15.01.2018 00:00:00 3,0 -1,0 44 24 47 25 S 1015,5 -
14.01.2018 23:00:00 3,3 -0,9 42 23 47 25 S 1016,9 -
14.01.2018 22:00:00 3,2 -1,5 46 25 50 27 S 1018,0 -
14.01.2018 21:00:00 3,0 -0,4 39 21 43 23 S 1018,3 -
14.01.2018 20:00:00 2,8 -0,9 39 21 47 25 S 1019,1 -
14.01.2018 19:00:00 3,0 -1,2 39 21 43 23 S 1019,4 -
14.01.2018 18:00:00 2,8 -1,3 35 19 43 23 S 1019,9 -
14.01.2018 17:00:00 2,4 -1,6 26 14 36 19 S 1020,6 -
14.01.2018 16:00:00 2,2 -1,7 26 14 32 18 S 1021,3 -
14.01.2018 15:00:00 1,7 -2,4 22 12 32 18 S 1021,5 -
14.01.2018 14:00:00 1,3 -2,7 26 14 40 21 SSE 1021,9 -
14.01.2018 13:00:00 1,1 -3,4 34 18 40 21 S 1022,4 -
14.01.2018 12:00:00 1,3 -3,0 31 17 43 23 SSE 1023,3 -
14.01.2018 11:00:00 1,1 -3,6 35 19 43 23 SSE 1023,9 -
14.01.2018 10:00:00 1,1 -3,8 31 17 40 21 SSE 1024,1 -
14.01.2018 09:00:00 1,4 -2,8 28 15 43 23 SSE 1024,2 -
14.01.2018 08:00:00 2,0 -1,4 29 16 40 21 SE 1024,4 10
14.01.2018 07:00:00 2,4 -0,6 29 16 36 19 SE 1024,3 10
14.01.2018 06:00:00 2,3 -1,0 24 13 32 18 SE 1024,5 10
14.01.2018 05:00:00 2,3 -0,8 22 12 32 18 SSE 1024,7 10
14.01.2018 04:00:00 2,4 -0,5 24 13 36 19 SE 1025,0 10
14.01.2018 03:00:00 2,3 -0,3 28 15 36 19 SE 1025,3 10
14.01.2018 02:00:00 2,7 0,4 34 18 36 19 ESE 1025,4 9
14.01.2018 01:00:00 3,0 0,7 28 15 40 21 SE 1025,4 7
14.01.2018 00:00:00 3,2 1,0 24 13 32 18 SE 1025,9 10
13.01.2018 23:00:00 3,0 0,3 26 14 40 21 SSE 1026,2 10
13.01.2018 22:00:00 3,3 0,4 34 18 43 23 SSE 1026,2 10
13.01.2018 21:00:00 3,4 0,9 37 20 43 23 SE 1026,1 10
13.01.2018 20:00:00 3,8 1,6 28 15 43 23 SE 1026,2 9
13.01.2018 19:00:00 3,7 1,6 35 19 43 23 SSE 1026,0 9
13.01.2018 18:00:00 4,2 2,7 31 17 40 21 SSE 1025,7 7
13.01.2018 17:00:00 4,3 2,7 28 15 36 19 SSE 1025,8 7
13.01.2018 16:00:00 4,1 2,9 24 13 32 18 SSE 1025,9 6
13.01.2018 15:00:00 4,0 2,8 26 14 36 19 SSE 1026,1 6
13.01.2018 14:00:00 3,9 2,8 24 13 32 18 SSE 1026,3 6
13.01.2018 13:00:00 3,7 2,8 28 15 32 18 SSE 1026,9 5
13.01.2018 12:00:00 3,7 2,8 26 14 32 18 SSE 1026,9 5
13.01.2018 11:00:00 3,7 2,9 26 14 36 19 SSE 1026,8 3,3
13.01.2018 10:00:00 3,7 2,9 24 13 29 16 SSE 1026,7 3,4
13.01.2018 09:00:00 3,8 2,9 21 11 25 14 SSE 1026,8 4,1
13.01.2018 08:00:00 3,7 2,7 18 10 25 14 SSE 1026,5 4,6
13.01.2018 07:00:00 3,5 2,6 18 10 25 14 SSE 1026,6 4,5
13.01.2018 06:00:00 3,4 2,6 21 11 25 14 SSE 1026,8 4,4
13.01.2018 05:00:00 3,3 2,6 18 10 25 14 SSE 1027,0 4,3
13.01.2018 04:00:00 3,4 2,4 18 10 25 14 SSE 1027,4 6
13.01.2018 03:00:00 3,7 2,4 21 11 29 16 SSE 1027,7 9
13.01.2018 02:00:00 3,9 2,3 21 11 25 14 SSE 1027,8 10
13.01.2018 01:00:00 3,9 1,9 22 12 25 14 SSE 1028,1 10
13.01.2018 00:00:00 4,0 1,9 18 10 29 16 SSE 1028,2 10
12.01.2018 23:00:00 3,8 1,9 21 11 29 16 SSE 1028,3 10
12.01.2018 22:00:00 3,8 2,2 21 11 29 16 SSE 1028,4 9
12.01.2018 21:00:00 3,9 2,2 18 10 29 16 SSE 1028,3 10
12.01.2018 20:00:00 4,0 2,2 21 11 25 14 SE 1028,2 10
12.01.2018 19:00:00 3,9 2,4 22 12 29 16 SE 1027,9 10
12.01.2018 18:00:00 4,0 2,2 26 14 29 16 SE 1027,9 10
12.01.2018 17:00:00 3,8 2,1 26 14 32 18 ESE 1027,7 10
12.01.2018 16:00:00 4,0 1,9 28 15 29 16 ESE 1027,5 10
12.01.2018 15:00:00 4,1 1,8 24 13 29 16 ESE 1027,3 10
12.01.2018 14:00:00 4,0 1,7 24 13 29 16 ESE 1027,2 10
12.01.2018 13:00:00 4,2 2,2 28 15 29 16 E 1027,3 10
12.01.2018 12:00:00 4,4 2,4 24 13 29 16 E 1027,7 10
12.01.2018 11:00:00 4,6 2,5 16 9 29 16 - 1027,7 -
12.01.2018 10:00:00 4,7 2,5 18 10 25 14 - 1027,4 -
12.01.2018 09:00:00 4,8 2,4 16 9 25 14 - 1027,0 -
12.01.2018 08:00:00 4,8 2,5 15 8 25 14 - 1026,4 -
12.01.2018 07:00:00 4,8 2,2 15 8 29 16 E 1025,8 -
12.01.2018 06:00:00 5,0 3,0 13 7 22 12 E 1025,6 -
12.01.2018 05:00:00 4,7 2,9 11 6 22 12 - 1025,7 10
12.01.2018 04:00:00 4,7 3,1 18 10 25 14 - 1025,7 10
12.01.2018 03:00:00 5,5 3,7 21 11 29 16 ENE 1025,3 10
12.01.2018 02:00:00 5,5 3,7 22 12 25 14 ENE 1025,1 10
12.01.2018 01:00:00 5,3 3,6 22 12 29 16 NE 1025,1 10
12.01.2018 00:00:00 5,4 3,6 18 10 22 12 NE 1024,6 10
11.01.2018 23:00:00 5,3 4,0 16 9 22 12 ENE 1024,5 7
11.01.2018 22:00:00 5,4 4,3 16 9 18 10 ENE 1023,8 6
11.01.2018 21:00:00 5,7 4,6 16 9 22 12 ENE 1023,5 8
11.01.2018 20:00:00 6,0 4,8 21 11 22 12 ENE 1022,9 6
11.01.2018 19:00:00 6,3 5,3 15 8 18 10 ENE 1022,4 7
11.01.2018 18:00:00 6,2 5,0 9 5 18 10 NNE 1021,6 6
11.01.2018 17:00:00 6,3 4,8 13 7 14 8 ENE 1021,1 8
11.01.2018 16:00:00 6,4 5,5 9 5 14 8 E 1020,2 8
11.01.2018 15:00:00 6,3 5,3 16 9 18 10 ENE 1019,8 7
11.01.2018 14:00:00 7,5 5,4 11 6 18 10 ENE 1019,1 10
11.01.2018 13:00:00 7,0 5,3 11 6 22 12 E 1018,7 10
11.01.2018 12:00:00 7,1 4,9 9 5 14 8 E 1018,5 10
11.01.2018 11:00:00 7,4 4,8 5 3 11 6 E 1017,8 10
11.01.2018 10:00:00 6,4 5,1 8 4 11 6 ESE 1017,1 10
11.01.2018 09:00:00 6,3 4,9 7 4 11 6 E 1016,4 12
11.01.2018 08:00:00 6,3 5,0 4 2 7 4 ESE 1015,4 10
11.01.2018 07:00:00 6,2 5,0 8 4 7 4 S 1014,4 10
11.01.2018 06:00:00 6,2 4,9 9 5 14 8 SSE 1013,6 10
11.01.2018 05:00:00 6,3 5,1 11 6 14 8 SE 1013,0 10
11.01.2018 04:00:00 6,6 5,0 11 6 14 8 SSE 1012,6 10
11.01.2018 03:00:00 6,6 5,5 9 5 14 8 S 1012,1 7
11.01.2018 02:00:00 6,3 5,4 11 6 14 8 SSE 1011,5 6
11.01.2018 01:00:00 6,5 5,5 13 7 18 10 S 1011,1 8
11.01.2018 00:00:00 6,4 5,6 16 9 29 16 S 1010,9 7
10.01.2018 23:00:00 6,2 5,5 28 15 29 16 S 1010,4 5
10.01.2018 22:00:00 6,5 5,6 24 13 29 16 S 1009,9 6
10.01.2018 21:00:00 6,4 5,5 26 14 29 16 S 1009,5 7
10.01.2018 20:00:00 6,3 5,5 21 11 25 14 S 1009,2 6
10.01.2018 19:00:00 6,3 5,5 18 10 25 14 S 1008,8 5
10.01.2018 18:00:00 6,3 5,2 21 11 29 16 SSE 1008,5 9
10.01.2018 17:00:00 6,2 5,4 18 10 25 14 SSE 1008,2 5
10.01.2018 16:00:00 6,3 5,4 21 11 25 14 S 1007,7 5
10.01.2018 15:00:00 6,1 5,1 21 11 25 14 S 1007,5 8
10.01.2018 14:00:00 6,2 5,2 24 13 25 14 S 1007,2 6
10.01.2018 13:00:00 6,0 4,9 22 12 25 14 S 1007,7 8
10.01.2018 12:00:00 6,0 5,0 15 8 25 14 S 1008,0 7
10.01.2018 11:00:00 6,1 4,9 22 12 25 14 S 1008,3 9
10.01.2018 10:00:00 5,8 4,8 21 11 22 12 S 1008,4 8

tt = Température de l'air
td = dewpoint
ff = Vitesse du vent
fx = gusts
dd = Direction du vent
ppp = reduced air pressure
vv = visibility

stations d'obs. à proximité